Weather History for Spokane Fairchild, WA

Change the Weather History Date:

Monday, July 8, 2013

  Actual Average Record
Temperature  
Mean Temperature 70 °F -  
Max Temperature 82 °F 79 °F 93 °F (2012)
Min Temperature 59 °F 53 °F 42 °F (2004)
Cooling Degree Days 5    
Growing Degree Days 20 (Base 50)    
Moisture  
Dew Point 49 °F    
Average Humidity 47    
Maximum Humidity 65    
Minimum Humidity 31    
Precipitation  
Precipitation 0.00 in - - ()
Sea Level Pressure  
Sea Level Pressure 29.95 in    
Wind  
Wind Speed 8 mph (North)    
Max Wind Speed 13 mph    
Max Gust Speed -    
Visibility 10 miles    
Events      
Averages and records for this station are not official NWS values.
T = Trace of Precipitation, MM = Missing Value Source: NWS Daily Summary

Daily Weather History Graph

Daily Weather History Graph

Search for Another Location

Airport:

Trip Planner

Search our weather history database for the weather conditions in past years. The results will help you decide how hot, cold, wet, or windy it might be!

Date:

Astronomy

Jul. 08, 2013 Rise Set
Actual Time 5:02 AM PDT 8:48 PM PDT
Civil Twilight 4:22 AM PDT 9:28 PM PDT
Nautical Twilight 3:28 AM PDT 10:22 PM PDT
Astronomical Twilight 2:09 AM PDT 11:39 PM PDT
Moon 5:42 AM PDT (7/8) 8:44 PM PDT (7/8)
Length of Visible Light 17h 05m
Length of Day
15h 46m
New Moon, 0% of the Moon is Illuminated
Jul 8
New Moon
Jul 15
First Quarter
Jul 22
Full
Jul 29
Last Quarter
Aug 6
New

Hourly Weather History & Observations

Time (PDT) Temp. Dew Point Humidity Pressure Visibility Wind Dir Wind Speed Gust Speed Precip Events Conditions
12:58 AM 61.3 °F 48.6 °F 63% 29.83 in 10.0 mi WNW 10.4 mph - N/A   Clear
1:58 AM 63.3 °F 48.2 °F 58% 29.83 in 10.0 mi NNW 8.1 mph - N/A   Clear
2:58 AM 61.5 °F 48.2 °F 62% 29.83 in 10.0 mi NNW 4.6 mph - N/A   Scattered Clouds
3:58 AM 62.1 °F 47.1 °F 58% 29.82 in 10.0 mi North 11.5 mph - N/A   Scattered Clouds
4:58 AM 59.9 °F 47.8 °F 64% 29.84 in 10.0 mi NNW 5.8 mph - N/A   Overcast
5:58 AM 60.3 °F 48.4 °F 65% 29.87 in 10.0 mi North 3.5 mph - N/A   Partly Cloudy
6:58 AM 63.9 °F 50.0 °F 61% 29.88 in 10.0 mi ENE 3.5 mph - N/A   Clear
7:58 AM 68.4 °F 49.5 °F 51% 29.90 in 10.0 mi North 8.1 mph - N/A   Clear
8:58 AM 70.9 °F 50.2 °F 48% 29.91 in 10.0 mi NNE 11.5 mph - N/A   Clear
9:58 AM 70.3 °F 51.1 °F 50% 29.95 in 10.0 mi East 6.9 mph - N/A   Clear
10:58 AM 74.1 °F 51.1 °F 44% 29.96 in 10.0 mi Variable 4.6 mph - N/A   Clear
11:58 AM 76.3 °F 50.7 °F 41% 29.97 in 10.0 mi ESE 5.8 mph - N/A   Partly Cloudy
12:58 PM 77.4 °F 49.5 °F 37% 29.98 in 10.0 mi South 2.3 mph - N/A   Clear
1:58 PM 77.9 °F 48.6 °F 36% 29.97 in 10.0 mi SSW 8.1 mph - N/A   Mostly Cloudy
2:58 PM 79.7 °F 48.7 °F 34% 29.97 in 10.0 mi Variable 6.9 mph - N/A   Clear
3:16 PM 80.6 °F 48.2 °F 32% 30.01 in 10.0 mi SW 12.7 mph - N/A   Partly Cloudy
3:58 PM 79.5 °F 49.1 °F 34% 29.98 in 10.0 mi WSW 8.1 mph - N/A   Scattered Clouds
4:58 PM 81.5 °F 47.8 °F 31% 29.99 in 10.0 mi West 6.9 mph - N/A   Scattered Clouds
5:58 PM 78.6 °F 47.3 °F 33% 30.00 in 10.0 mi NNW 12.7 mph - N/A   Clear
6:58 PM 76.6 °F 46.2 °F 34% 30.01 in 10.0 mi North 10.4 mph - N/A   Clear
7:58 PM 74.3 °F 46.8 °F 37% 30.02 in 10.0 mi North 5.8 mph - N/A   Clear
8:58 PM 70.7 °F 48.4 °F 45% 30.03 in 10.0 mi North 6.9 mph - N/A   Clear
9:58 PM 68.2 °F 48.4 °F 49% 30.05 in 10.0 mi NE 4.6 mph - N/A   Clear
10:58 PM 65.8 °F 48.6 °F 54% 30.06 in 10.0 mi ENE 2.3 mph - N/A   Clear
11:58 PM 64.6 °F 48.4 °F 56% 30.07 in 10.0 mi NNE 2.3 mph - N/A   Clear